Tracking 26940 objects as of 28-Jan-2023
HD Live streaming from Space Station
objects crossing your sky now

ORBCOMM FM 103

Track ORBCOMM FM 103 now!
10-day predictions
ORBCOMM FM 103 is classified as:


NORAD ID: 40091
Int'l Code: 2014-040F
Perigee: 713.4 km
Apogee: 717.3 km
Inclination: 47.0 °
Period: 98.9 minutes
Semi major axis: 7086 km
RCS: Unknown
Launch date: July 14, 2014
Source: United States (US)
Launch site: AIR FORCE EASTERN TEST RANGE (AFETR)
Your satellite tracking list
Your tracking list is empty




NASA's NSSDC Master Catalog

Two Line Element Set (TLE):
1 40091U 14040F   23027.37937663  .00001067  00000-0  28152-3 0  9996
2 40091  47.0053 164.7941 0002774 245.1858 114.8738 14.55360146437001
Source of the keplerian elements: AFSPC